Tiempo cada hora Almeirim

Hoy, 31 Julio, Sábado

Tiempo Temperatura Precipitaciones Viento Presión Humedad
00:00 +16°C° 0 mm 5 mps 762 mmHg 85%
01:00 +16°C° 0 mm 5 mps 761 mmHg 81%
02:00 +16°C° 0 mm 6 mps 761 mmHg 78%
03:00 +16°C° 0 mm 6 mps 761 mmHg 77%
04:00 +15°C° 0 mm 6 mps 761 mmHg 77%
05:00 +15°C° 0 mm 6 mps 761 mmHg 76%
06:00 +17°C° 0 mm 6 mps 762 mmHg 66%
07:00 +20°C° 0 mm 7 mps 762 mmHg 57%
08:00 +21°C° 0 mm 8 mps 762 mmHg 47%
09:00 +23°C° 0 mm 8 mps 762 mmHg 43%
10:00 +24°C° 0 mm 8 mps 762 mmHg 39%
11:00 +26°C° 0 mm 8 mps 762 mmHg 35%
12:00 +26°C° 0 mm 8 mps 762 mmHg 36%
13:00 +24°C° 0 mm 8 mps 762 mmHg 37%
14:00 +24°C° 0 mm 8 mps 762 mmHg 38%
15:00 +23°C° 0 mm 8 mps 762 mmHg 41%
16:00 +22°C° 0 mm 8 mps 762 mmHg 45%
17:00 +22°C° 0 mm 8 mps 762 mmHg 48%
18:00 +20°C° 0 mm 7 mps 762 mmHg 58%
19:00 +17°C° 0 mm 6 mps 762 mmHg 69%
20:00 +16°C° 0 mm 6 mps 763 mmHg 79%
21:00 +16°C° 0 mm 5 mps 763 mmHg 80%
22:00 +15°C° 0 mm 5 mps 762 mmHg 82%
23:00 +15°C° 0 mm 5 mps 762 mmHg 84%

Mañana, 1 Agosto, Domingo

Tiempo Temperatura Precipitaciones Viento Presión Humedad
00:00 +15°C° 0 mm 4 mps 762 mmHg 85%
01:00 +14°C° 0 mm 4 mps 762 mmHg 87%
02:00 +14°C° 0 mm 3 mps 762 mmHg 88%
03:00 +14°C° 0 mm 3 mps 762 mmHg 90%
04:00 +14°C° 0 mm 3 mps 762 mmHg 91%
05:00 +15°C° 0 mm 2 mps 762 mmHg 93%
06:00 +17°C° 0 mm 3 mps 762 mmHg 80%
07:00 +20°C° 0 mm 4 mps 762 mmHg 68%
08:00 +23°C° 0 mm 4 mps 762 mmHg 55%
09:00 +25°C° 0 mm 5 mps 761 mmHg 50%
10:00 +27°C° 0 mm 5 mps 761 mmHg 45%
11:00 +29°C° 0 mm 5 mps 761 mmHg 40%
12:00 +29°C° 0 mm 6 mps 761 mmHg 40%
13:00 +29°C° 0 mm 6 mps 760 mmHg 40%
14:00 +29°C° 0 mm 6 mps 760 mmHg 40%
15:00 +28°C° 0 mm 6 mps 760 mmHg 45%
16:00 +27°C° 0 mm 6 mps 760 mmHg 49%
17:00 +26°C° 0 mm 6 mps 759 mmHg 53%
18:00 +23°C° 0 mm 5 mps 760 mmHg 65%
19:00 +21°C° 0 mm 3 mps 760 mmHg 76%
20:00 +19°C° 0 mm 2 mps 760 mmHg 87%
21:00 +18°C° 0 mm 2 mps 760 mmHg 91%
22:00 +18°C° 0 mm 2 mps 760 mmHg 94%
23:00 +18°C° 0 mm 2 mps 760 mmHg 97%

Pasado mañana, 2 Agosto, Lunes

Tiempo Temperatura Precipitaciones Viento Presión Humedad
00:00 +18°C° 0 mm 2 mps 759 mmHg 96%
01:00 +18°C° 0 mm 2 mps 759 mmHg 95%
02:00 +18°C° 0 mm 2 mps 759 mmHg 95%
03:00 +18°C° 0 mm 2 mps 759 mmHg 95%
04:00 +18°C° 0 mm 2 mps 759 mmHg 95%
05:00 +17°C° 0 mm 2 mps 759 mmHg 95%
06:00 +20°C° 0 mm 2 mps 759 mmHg 83%
07:00 +22°C° 0 mm 3 mps 759 mmHg 72%
08:00 +25°C° 0 mm 3 mps 759 mmHg 61%
09:00 +27°C° 0 mm 4 mps 759 mmHg 53%
10:00 +29°C° 0 mm 4 mps 759 mmHg 46%
11:00 +32°C° 0 mm 4 mps 759 mmHg 38%
12:00 +32°C° 0 mm 5 mps 758 mmHg 36%
13:00 +33°C° 0 mm 5 mps 758 mmHg 35%
14:00 +33°C° 0 mm 6 mps 758 mmHg 34%
15:00 +30°C° 0 mm 6 mps 758 mmHg 39%
16:00 +28°C° 0 mm 7 mps 758 mmHg 44%
17:00 +26°C° 0 mm 7 mps 758 mmHg 49%
18:00 +23°C° 0 mm 6 mps 759 mmHg 58%
19:00 +21°C° 0 mm 5 mps 759 mmHg 66%
20:00 +19°C° 0 mm 4 mps 759 mmHg 74%
21:00 +19°C° 0 mm 4 mps 760 mmHg 79%
22:00 +18°C° 0 mm 3 mps 760 mmHg 83%
23:00 +17°C° 0 mm 3 mps 760 mmHg 88%

3 Agosto, Martes

Tiempo Temperatura Precipitaciones Viento Presión Humedad
00:00 +17°C° 0 mm 3 mps 760 mmHg 90%
01:00 +17°C° 0 mm 2 mps 760 mmHg 93%
02:00 +16°C° 0 mm 2 mps 760 mmHg 95%
03:00 +16°C° 0 mm 2 mps 760 mmHg 95%
04:00 +16°C° 0 mm 2 mps 760 mmHg 95%
05:00 +16°C° 0 mm 2 mps 760 mmHg 95%
06:00 +19°C° 0 mm 2 mps 760 mmHg 81%
07:00 +23°C° 0 mm 2 mps 761 mmHg 67%
08:00 +26°C° 0 mm 3 mps 761 mmHg 54%
09:00 +28°C° 0 mm 3 mps 761 mmHg 46%
10:00 +30°C° 0 mm 3 mps 761 mmHg 39%
11:00 +34°C° 0 mm 4 mps 761 mmHg 32%
12:00 +34°C° 0 mm 4 mps 760 mmHg 30%
13:00 +35°C° 0 mm 5 mps 760 mmHg 28%
14:00 +35°C° 0 mm 5 mps 760 mmHg 26%
15:00 +33°C° 0 mm 6 mps 760 mmHg 27%
16:00 +32°C° 0 mm 6 mps 760 mmHg 27%
17:00 +29°C° 0 mm 6 mps 760 mmHg 28%
18:00 +26°C° 0 mm 6 mps 761 mmHg 39%
19:00 +22°C° 0 mm 5 mps 762 mmHg 50%
20:00 +20°C° 0 mm 5 mps 762 mmHg 61%
21:00 +20°C° 0 mm 4 mps 762 mmHg 68%
22:00 +19°C° 0 mm 4 mps 762 mmHg 75%
23:00 +19°C° 0 mm 4 mps 762 mmHg 83%

4 Agosto, Miércoles

Tiempo Temperatura Precipitaciones Viento Presión Humedad
00:00 +19°C° 0 mm 4 mps 762 mmHg 85%
01:00 +19°C° 0 mm 4 mps 762 mmHg 87%
02:00 +19°C° 0 mm 4 mps 761 mmHg 89%
03:00 +19°C° 0 mm 4 mps 762 mmHg 90%
04:00 +19°C° 0 mm 3 mps 762 mmHg 92%
05:00 +18°C° 0 mm 3 mps 762 mmHg 93%
06:00 +21°C° 0 mm 4 mps 762 mmHg 79%
07:00 +25°C° 0 mm 4 mps 762 mmHg 64%
08:00 +27°C° 0 mm 5 mps 762 mmHg 50%
09:00 +29°C° 0 mm 5 mps 762 mmHg 42%
10:00 +32°C° 0 mm 6 mps 762 mmHg 34%
11:00 +35°C° 0 mm 6 mps 762 mmHg 26%
12:00 +35°C° 0 mm 7 mps 761 mmHg 25%
13:00 +35°C° 0 mm 7 mps 761 mmHg 25%
14:00 +35°C° 0 mm 8 mps 761 mmHg 24%
15:00 +33°C° 0 mm 8 mps 761 mmHg 29%
16:00 +31°C° 0 mm 8 mps 761 mmHg 34%
17:00 +28°C° 0 mm 7 mps 762 mmHg 39%
18:00 +26°C° 0 mm 6 mps 762 mmHg 49%
19:00 +23°C° 0 mm 6 mps 762 mmHg 59%
20:00 +20°C° 0 mm 5 mps 763 mmHg 69%
21:00 +20°C° 0 mm 5 mps 763 mmHg 72%
22:00 +19°C° 0 mm 5 mps 763 mmHg 75%
23:00 +19°C° 0 mm 4 mps 763 mmHg 78%

5 Agosto, Jueves

Tiempo Temperatura Precipitaciones Viento Presión Humedad
00:00 +19°C° 0 mm 4 mps 762 mmHg 80%
01:00 +19°C° 0 mm 4 mps 762 mmHg 81%
02:00 +19°C° 0 mm 4 mps 762 mmHg 82%
03:00 +19°C° 0 mm 4 mps 762 mmHg 83%
04:00 +19°C° 0 mm 4 mps 762 mmHg 84%
05:00 +19°C° 0 mm 4 mps 762 mmHg 85%
06:00 +21°C° 0 mm 4 mps 762 mmHg 74%
07:00 +25°C° 0 mm 5 mps 762 mmHg 62%
08:00 +28°C° 0 mm 5 mps 762 mmHg 51%
09:00 +29°C° 0 mm 6 mps 762 mmHg 47%
10:00 +32°C° 0 mm 6 mps 762 mmHg 44%
11:00 +34°C° 0 mm 7 mps 762 mmHg 40%
12:00 +34°C° 0 mm 7 mps 762 mmHg 41%
13:00 +33°C° 0 mm 7 mps 761 mmHg 42%
14:00 +33°C° 0 mm 7 mps 761 mmHg 43%
15:00 +32°C° 0 mm 7 mps 761 mmHg 45%
16:00 +29°C° 0 mm 7 mps 761 mmHg 48%
17:00 +28°C° 0 mm 7 mps 761 mmHg 50%
18:00 +24°C° 0 mm 6 mps 761 mmHg 60%
19:00 +22°C° 0 mm 5 mps 762 mmHg 70%
20:00 +19°C° 0 mm 5 mps 762 mmHg 80%
21:00 +17°C° 0 mm 5 mps 762 mmHg 82%
22:00 +17°C° 0 mm 5 mps 762 mmHg 84%
23:00 +16°C° 0 mm 5 mps 762 mmHg 86%
Mostrar más

Necesitamos Su Consentimiento

Meteoprog y nuestros Proveedores de Servicios pueden almacenar y acceder a sus datos personales como cookies, identificadores de dispositivo u otras tecnologías similares de su dispositivo y procesar dichos datos para personalizar contenido y anuncios, además de ofrecer funciones de redes sociales y analizar el tráfico.

  • Almacenar y/o acceder a información en su dispositivo

    Se puede almacenar o acceder a cookies, identificadores de dispositivo u otra información de su dispositivo para los fines anteriormente indicados.

  • Anuncios y contenido personalizados, medición de anuncios y contenido, percepciones del público, y desarrollo de productos

    Los anuncios y el contenido pueden personalizarse en base a su perfil. Se pueden añadir más datos para personalizar mejor los anuncios y contenidos. Se puede medir el rendimiento de los anuncios y contenidos. Se puede obtener la percepción sobre el público que ha visto los anuncios y contenidos. Dichos datos pueden usarse para desarrollar o mejorar la experiencia del usuario, sistemas y software.

Al hacer clic en ‘Estoy De Acuerdo’ usted permitirá el uso de las cookies, identificadores de dispositivo, balizas web u otras tecnologías similares indicadas. Su configuración puede cambiarse desde el navegador de su dispositivo.

Para ciertos fines, los intereses legítimos pueden ser considerados por encima del consentimiento. Puede leer más sobre ello en nuestra Política de Privacidad y Cookies.